{"data":{"norad_id":64213,"epoch":"2026-05-25T04:00:03.998880Z","epoch_age_seconds":64066,"freshness":"FRESH","line1":"1 64213U 25117L   26145.16671295  .00113450  00000+0  33306-2 0  9997","line2":"2 64213  53.1611  44.5937 0000303 261.8992  23.7588 15.34284273  5850","mean_motion":15.34284273,"eccentricity":3.03e-5,"inclination_deg":53.1611,"raan_deg":44.5937,"arg_perigee_deg":261.8992,"mean_anomaly_deg":23.7588,"bstar":0.0033306,"rev_number":585,"period_min":93.854836769222,"perigee_km":462.83993897752,"apogee_km":463.25451474167,"semimajor_km":6841.1842268596,"source":"CELESTRAK","updated_at":"2026-05-25T13:38:20.319003Z"}}